"Pseudo-MPEC" for P21B8hp

Created 2022 Nov 25 13:22:21 UT using Find_Orb

Click here for an explanation of pseudo-MPECs

 
 Astrometry: 
     P21B8hp* C2022 10 30wclCH3VJB.b9h?xuAstrometry]SNd=redacted;_\nf+2N0x$aqF52
     P21B8hp  C2022 10 30_d*;iIQ@kpr@SKoqhT-6@mHHW!M?=x$[\?JbBU\gLT-YYV+!e87_F52
     P21B8hp  C2022 10 30_:.=;5623:mo3r1/MHPS7g\nr]3dOrJiZA^oWp\K=+^iqG=?wJu4F52
     P21B8hp  C2022 11 017W\/oclickoNDBxgV?KLPhereub!8H9for(?:y^7IY%;k$:eR8a*F52
     P21B8hp  C2022 11 01%#*DS%,T=TGyMaxexplanationeRy2=jNu^9NvUX!s\_=idIx[XEF52

Station data:
(F52) Pan-STARRS 2, Haleakala  (N20.707382 W156.255910)  US/Hawaii.
   Observers J. Bulger, T. Dukes, T. Lowe, A. Schultz, M. Willman. Measurers
   K. Chambers, S. Chastel, T. de Boer, L. Denneau, J. Fairlamb, H.
   Flewelling, M. Huber, C.-C. Lin, E. Magnier, Y. Ramanjooloo, R. Wainscoat,
   R. Weryk. 1.8-m Ritchey-Chrétien + CCD.

Orbital elements:  P21B8hp
   Perihelion 2023 Jan 31.95701 +/- 46.9 TT = 22:58:06 (JD 2459976.45701)
Epoch 2022 Nov  1.0 TT = JDT 2459884.5   Earth MOID: 0.3754   AutoNEOCP
M 338.29633022 +/- 30               (J2000 ecliptic)
n   0.23601973 +/- 0.253            Peri.  139.33190 +/- 60
a   2.59320693 +/- 1.86             Node   349.71362 +/- 22
e   0.5034130 +/- 0.252             Incl.   32.70653 +/- 6
P   4.18                   H 18.8   G  0.15   U 11.8  SR
q 1.28775283 +/- 0.323    Q 3.89866102 +/- 26.3
From 5 observations 2022 Oct. 30-Nov. 1; mean residual 0".16
Residuals in arcseconds: 
221030 F52  .32-  .17+    221030 F52  .29+  .04+    221101 F52  .03-  .05+    
221030 F52  .04+  .21-    221101 F52  .02+  .04-    

Ephemerides (geocentric):
Date (UTC) HH   RA             Dec           delta  r     elong  mag " sig PA
---- --------  ------------   ------------  ------ ------ -----  --- --------
2022 11 25 13  12 15 38.575   +77 33 15.15  .88021 1.4694 103.6 20.9 183'  31
2022 11 25 14  12 15 58.876   +77 32 47.56  .88000 1.4692 103.6 20.9 184'  31
2022 11 25 15  12 16 19.140   +77 32 19.92  .87979 1.4690 103.6 20.9 184'  31
2022 11 25 16  12 16 39.369   +77 31 52.22  .87958 1.4688 103.6 20.9 185'  31
2022 11 25 17  12 16 59.562   +77 31 24.46  .87937 1.4686 103.6 20.9 185'  31
2022 11 25 18  12 17 19.719   +77 30 56.64  .87916 1.4684 103.6 20.9 186'  31
2022 11 25 19  12 17 39.839   +77 30 28.77  .87895 1.4682 103.6 20.9 187'  31
2022 11 25 20  12 17 59.924   +77 30 00.84  .87874 1.4680 103.6 20.9 187'  31
2022 11 25 21  12 18 19.974   +77 29 32.85  .87853 1.4678 103.6 20.9 188'  31
2022 11 25 22  12 18 39.987   +77 29 04.81  .87832 1.4676 103.6 20.9 189'  32
2022 11 25 23  12 18 59.964   +77 28 36.71  .87811 1.4674 103.6 20.9 190'  32
2022 11 26 00  12 19 19.906   +77 28 08.56  .87790 1.4672 103.6 20.9 190'  32
2022 11 26 01  12 19 39.812   +77 27 40.35  .87769 1.4670 103.6 20.9 191'  32
2022 11 26 02  12 19 59.682   +77 27 12.09  .87748 1.4668 103.6 20.9 192'  32
2022 11 26 03  12 20 19.516   +77 26 43.77  .87727 1.4666 103.6 20.9 192'  32
2022 11 26 04  12 20 39.314   +77 26 15.40  .87706 1.4664 103.6 20.9 193'  32
2022 11 26 05  12 20 59.077   +77 25 46.97  .87685 1.4662 103.6 20.9 194'  32
2022 11 26 06  12 21 18.804   +77 25 18.50  .87664 1.4660 103.6 20.9 194'  32
2022 11 26 07  12 21 38.495   +77 24 49.96  .87643 1.4658 103.6 20.9 195'  32
2022 11 26 08  12 21 58.151   +77 24 21.38  .87622 1.4656 103.6 20.9 196'  32
2022 11 26 09  12 22 17.771   +77 23 52.74  .87601 1.4654 103.6 20.9 196'  32
2022 11 26 10  12 22 37.355   +77 23 24.05  .87580 1.4652 103.6 20.9 197'  33
2022 11 26 11  12 22 56.904   +77 22 55.31  .87559 1.4650 103.6 20.9 198'  33
2022 11 26 12  12 23 16.417   +77 22 26.51  .87538 1.4648 103.6 20.9 198'  33
2022 11 26 13  12 23 35.894   +77 21 57.67  .87517 1.4646 103.6 20.9 199'  33
2022 11 26 14  12 23 55.336   +77 21 28.77  .87496 1.4644 103.6 20.9 200'  33
2022 11 26 15  12 24 14.743   +77 20 59.82  .87475 1.4642 103.6 20.9 201'  33
2022 11 26 16  12 24 34.114   +77 20 30.82  .87454 1.4640 103.6 20.9 201'  33
2022 11 26 17  12 24 53.449   +77 20 01.77  .87433 1.4638 103.5 20.9 202'  33
2022 11 26 18  12 25 12.749   +77 19 32.67  .87412 1.4636 103.5 20.9 203'  33
2022 11 26 19  12 25 32.013   +77 19 03.52  .87392 1.4634 103.5 20.9 203'  33
2022 11 26 20  12 25 51.242   +77 18 34.32  .87371 1.4632 103.5 20.9 204'  33
2022 11 26 21  12 26 10.436   +77 18 05.08  .87350 1.4630 103.5 20.9 205'  33
2022 11 26 22  12 26 29.594   +77 17 35.78  .87329 1.4628 103.5 20.9 205'  34
2022 11 26 23  12 26 48.717   +77 17 06.43  .87308 1.4626 103.5 20.9 206'  34
2022 11 27 00  12 27 07.804   +77 16 37.04  .87287 1.4624 103.5 20.9 207'  34
2022 11 27 01  12 27 26.856   +77 16 07.60  .87266 1.4622 103.5 20.9 208'  34
2022 11 27 02  12 27 45.873   +77 15 38.10  .87245 1.4620 103.5 20.9 208'  34
2022 11 27 03  12 28 04.855   +77 15 08.57  .87224 1.4619 103.5 20.9 209'  34
2022 11 27 04  12 28 23.801   +77 14 38.98  .87204 1.4617 103.5 20.9 210'  34
2022 11 27 05  12 28 42.713   +77 14 09.35  .87183 1.4615 103.5 20.9 210'  34
2022 11 27 06  12 29 01.589   +77 13 39.67  .87162 1.4613 103.5 20.9 211'  34
2022 11 27 07  12 29 20.430   +77 13 09.94  .87141 1.4611 103.5 20.9 212'  34
2022 11 27 08  12 29 39.235   +77 12 40.17  .87120 1.4609 103.5 20.9 213'  34
2022 11 27 09  12 29 58.006   +77 12 10.35  .87099 1.4607 103.5 20.9 213'  34
2022 11 27 10  12 30 16.742   +77 11 40.49  .87078 1.4605 103.5 20.9 214'  35
2022 11 27 11  12 30 35.442   +77 11 10.58  .87058 1.4603 103.5 20.9 215'  35
2022 11 27 12  12 30 54.108   +77 10 40.63  .87037 1.4601 103.5 20.9 216'  35